[[{"header":{"parameterUnit":"m.s-1","parameterCategory":2,"la1":30.2991,"la2":30.254,"lo1":-89.0895,"lo2":-89.0444,"dy":0.0017,"dx":0.0017,"nx":28,"ny":28,"refTime":"2024-08-06T03:00:00:Z","depth":"0","parameterNumber":2,"parameterNumberName":"U-component_of_CURRENTS"},"data":[0,0,0,0,0,0,0,0,0,0,0,0,0,0,0,0,0,0,0,0,0,0,0,0,0,0,0,0,0,0,0,0,0,0,0,0,0,0,0,0,0,0,0,0,0,0,0,0,0,0,0,0,0,0,0,0,0,0,0.181,0.181,0,0.1773,0.1772,0.1771,0.1701,0.17,0.17,0.1699,0.1556,0.1553,0.155,0,0,0,0,0,0,0,0,0,0,0,0,0,0.1816,0.1816,0.181,0.181,0.181,0.1774,0.1772,0.1771,0.1701,0.17,0.1699,0.1699,0.1557,0.1553,0.155,0,0,0,0,0,0,0,0,0,0,0,0,0,0.1791,0.1815,0.181,0.1778,0.1775,0.1774,0.1772,0.1771,0.1701,0.17,0.1699,0.1698,0.1559,0.1554,0.1549,0.1535,0,0,0.1534,0.1532,0,0,0,0,0,0,0,0,0.1793,0.179,0.1782,0.178,0.1777,0.1749,0.1723,0.169,0.1701,0.1719,0.1699,0.1698,0.1617,0.1608,0.1591,0.1528,0.1522,0.1533,0.153,0.1528,0.1527,0,0,0,0,0,0,0,0.1794,0.1791,0.1786,0.1783,0.178,0.1766,0.176,0.1716,0.1664,0.1718,0.1715,0.1726,0.1614,0.1596,0.1587,0.152,0.1534,0.1529,0.1526,0.1524,0.142,0.1421,0,0,0,0,0,0,0.1818,0.1793,0.1787,0.1786,0.1794,0.1767,0.176,0.1751,0.1667,0.1657,0.1726,0.1723,0.1605,0.1593,0.1582,0.1528,0.1528,0.1524,0.1521,0.142,0.142,0.1421,0,0,0,0,0,0,0.1818,0.1817,0.1789,0.1797,0.1794,0.1768,0.1758,0.1751,0.1736,0.1677,0.1662,0.1721,0.1604,0.1589,0.1543,0.1523,0.1522,0.1517,0.142,0.142,0.1421,0.144,0,0,0,0,0,0,0.1818,0.1817,0.1817,0.1798,0.1794,0.1786,0.176,0.1751,0.1749,0.1743,0.1667,0.1653,0.1602,0.1551,0.1538,0.1516,0.1513,0.142,0.142,0.142,0.1439,0.1441,0.1443,0,0,0,0,0,0.1818,0.1821,0.1817,0.1817,0.1795,0.1787,0.1782,0.1756,0.175,0.1739,0.1693,0.1655,0.1544,0.1547,0.1532,0.1508,0.142,0.142,0.142,0.1438,0.1441,0.1442,0,0,0,0,0,0,0.1822,0.1815,0.1809,0.1809,0.1802,0.1779,0.1775,0.1767,0.1724,0.1714,0.1656,0.1638,0.1594,0.1558,0.1563,0.1483,0.1476,0.1474,0.1495,0.1497,0.1498,0.1512,0.1509,0,0,0,0,0,0.1828,0.1827,0.1819,0.182,0.1817,0.18,0.1797,0.178,0.1749,0.173,0.1687,0.1635,0.1585,0.1548,0.1506,0.1459,0.1448,0.1436,0.1438,0.1439,0.1443,0.1435,0.1436,0.1422,0.1422,0.1422,0,0,0.1831,0.1832,0.1829,0.1823,0.1811,0.1799,0.1792,0.1786,0.1774,0.1721,0.1686,0.1645,0.158,0.1527,0.1502,0.1489,0.1436,0.144,0.1441,0.1444,0.1435,0.1436,0.1438,0.1422,0.1422,0.1422,0,0,0.1835,0.1834,0.1829,0.1823,0.1821,0.1808,0.1813,0.1794,0.1779,0.1753,0.1708,0.1662,0.1596,0.1534,0.1496,0.1486,0.1457,0.1473,0.1471,0.1464,0.1465,0.1466,0.1445,0.1444,0.1459,0.146,0.146,0,0.1828,0.1829,0.1828,0.1822,0.1818,0.1814,0.1801,0.179,0.1761,0.1747,0.1746,0.1648,0.1597,0.1513,0.1507,0.1486,0.1482,0.1465,0.1466,0.1467,0.1467,0.1446,0.1445,0.1461,0.146,0.146,0.146,0,0.1821,0.1825,0.1824,0.1809,0.1803,0.1797,0.1787,0.1779,0.1775,0.1759,0.171,0.1648,0.1587,0.1559,0.1526,0.1486,0.1483,0.1481,0.1461,0.147,0.1447,0.1445,0.1462,0.1462,0.1461,0.1461,0,0,0.1765,0.1808,0.1802,0.1808,0.1795,0.1789,0.1777,0.1757,0.1747,0.1724,0.1697,0.1618,0.1601,0.1559,0.1506,0.1486,0.1481,0.1488,0.1487,0.1468,0.1463,0.1475,0.1474,0.1488,0.1488,0.1488,0.1442,0,0.1744,0.1754,0.1772,0.1767,0.1764,0.1765,0.1755,0.174,0.1729,0.1708,0.1656,0.1612,0.1595,0.1558,0.1541,0.1497,0.1479,0.1493,0.1457,0.1455,0.1466,0.1474,0.1519,0.1484,0.144,0.144,0.144,0,0.1708,0.1723,0.1725,0.1757,0.1752,0.1748,0.1728,0.1723,0.1696,0.1688,0.1648,0.1619,0.1561,0.1564,0.1507,0.1522,0.1502,0.1476,0.1473,0.1479,0.1465,0.147,0.1482,0.1587,0.1437,0.1437,0.1437,0,0.1661,0.1687,0.1697,0.17,0.1723,0.1721,0.1728,0.1708,0.17,0.1673,0.1657,0.1607,0.1571,0.1551,0.1505,0.1513,0.1458,0.1459,0.1445,0.1444,0.1472,0.1474,0.1582,0.1438,0.1438,0.1438,0.1438,0,0.1626,0.1634,0.1683,0.1681,0.1681,0.1703,0.1692,0.1694,0.168,0.1654,0.1646,0.1603,0.1575,0.1536,0.1509,0.1471,0.1463,0.1449,0.1439,0.1479,0.1482,0.1565,0.1578,0.1436,0.1437,0.1437,0.1437,0,0.1583,0.1617,0.1627,0.1655,0.1664,0.1659,0.1682,0.1669,0.1672,0.1635,0.1625,0.1601,0.1561,0.1524,0.1474,0.1468,0.1417,0.1416,0.1459,0.1456,0.156,0.157,0.1446,0.1347,0.1404,0.1404,0.1404,0,0.1569,0.1568,0.1596,0.1598,0.1616,0.1625,0.1623,0.1646,0.1632,0.1617,0.1587,0.1559,0.1513,0.1462,0.1462,0.1428,0.1396,0.1448,0.1476,0.1581,0.1584,0.1454,0.1368,0.1509,0.151,0.1511,0.1512,0,0.1508,0.1519,0.1531,0.1542,0.1545,0.1565,0.1573,0.156,0.1569,0.1528,0.1484,0.1457,0.1462,0.146,0.1455,0.1446,0.1443,0.1463,0.1568,0.1675,0.1543,0.1439,0.1514,0.1519,0.1518,0.1517,0.1517,0.1517,0.1449,0.1443,0.1451,0.1483,0.1499,0.1507,0.1506,0.1466,0.1421,0.1351,0.1378,0.1334,0.1462,0.1475,0.1491,0.1627,0.1461,0.1671,0.1669,0.1523,0.1449,0.1535,0.1536,0.1535,0.1535,0.1534,0.1534,0,0.1345,0.1365,0.1388,0.1422,0.145,0.1475,0.1474,0.1446,0.1348,0.126,0.1203,0.1325,0.1419,0.1556,0.1755,0.1851,0.171,0.1884,0.1771,0.1664,0.1788,0.1827,0.1898,0.1898,0.1898,0.1898,0.1898,0.1898,0.128,0.1264,0.1315,0.1362,0.1411,0.1423,0.1423,0.1337,0.1282,0.1169,0.1171,0.1228,0.1556,0.1925,0.2152,0.2136,0.1979,0.1958,0.1835,0.2085,0.2067,0.2049,0.2096,0.2222,0.2223,0.1651,0.1648,0.1645]},{"header":{"parameterUnit":"m.s-1","parameterCategory":2,"la1":30.2991,"la2":30.254,"lo1":-89.0895,"lo2":-89.0444,"dy":0.0017,"dx":0.0017,"nx":28,"ny":28,"refTime":"2024-08-06T03:00:00:Z","depth":"0","parameterNumber":3,"parameterNumberName":"V-component_of_CURRENTS"},"data":[0,0,0,0,0,0,0,0,0,0,0,0,0,0,0,0,0,0,0,0,0,0,0,0,0,0,0,0,0,0,0,0,0,0,0,0,0,0,0,0,0,0,0,0,0,0,0,0,0,0,0,0,0,0,0,0,0,0,-0.2644,-0.2646,0,-0.2676,-0.2675,-0.2675,-0.2587,-0.2586,-0.2584,-0.2583,-0.2391,-0.2388,-0.2384,0,0,0,0,0,0,0,0,0,0,0,0,0,-0.2558,-0.2558,-0.2644,-0.2646,-0.2647,-0.2676,-0.2675,-0.2675,-0.2588,-0.2586,-0.2584,-0.2582,-0.2393,-0.2388,-0.2384,0,0,0,0,0,0,0,0,0,0,0,0,0,-0.258,-0.2558,-0.2644,-0.2617,-0.2616,-0.2676,-0.2675,-0.2674,-0.2588,-0.2586,-0.2583,-0.2581,-0.2394,-0.2389,-0.2383,-0.2395,0,0,-0.2366,-0.2364,0,0,0,0,0,0,0,0,-0.2579,-0.2582,-0.2619,-0.2619,-0.2618,-0.2637,-0.2576,-0.2574,-0.2589,-0.2585,-0.2583,-0.258,-0.2463,-0.2452,-0.2447,-0.2386,-0.2377,-0.2366,-0.2363,-0.236,-0.2359,0,0,0,0,0,0,0,-0.2578,-0.2581,-0.2643,-0.2622,-0.2621,-0.2622,-0.262,-0.2575,-0.2522,-0.2585,-0.2582,-0.2607,-0.2459,-0.2453,-0.2442,-0.2375,-0.2366,-0.2361,-0.2358,-0.2356,-0.2279,-0.228,0,0,0,0,0,0,-0.26,-0.2579,-0.2643,-0.2646,-0.2607,-0.2626,-0.2624,-0.2622,-0.2527,-0.2516,-0.2609,-0.2603,-0.2464,-0.2448,-0.2434,-0.2398,-0.236,-0.2355,-0.2352,-0.2278,-0.2279,-0.2281,0,0,0,0,0,0,-0.2598,-0.2604,-0.2642,-0.2625,-0.2631,-0.2631,-0.2629,-0.2625,-0.2618,-0.2551,-0.2532,-0.2608,-0.2461,-0.2442,-0.241,-0.2391,-0.2353,-0.2348,-0.2276,-0.2278,-0.228,-0.2352,0,0,0,0,0,0,-0.2594,-0.2602,-0.2616,-0.2626,-0.2634,-0.2682,-0.2633,-0.2627,-0.2643,-0.2635,-0.2544,-0.2524,-0.2458,-0.2419,-0.2405,-0.2383,-0.2343,-0.2275,-0.2277,-0.2279,-0.2348,-0.2356,-0.2363,0,0,0,0,0,-0.2591,-0.2629,-0.2615,-0.2625,-0.2649,-0.2685,-0.2688,-0.2671,-0.2646,-0.2652,-0.26,-0.2527,-0.2423,-0.2417,-0.2399,-0.2375,-0.2274,-0.2276,-0.2279,-0.2345,-0.2355,-0.2363,0,0,0,0,0,0,-0.263,-0.2626,-0.261,-0.2652,-0.2669,-0.2675,-0.27,-0.2685,-0.2653,-0.2638,-0.2554,-0.2532,-0.2496,-0.2443,-0.2439,-0.2365,-0.2332,-0.2332,-0.2388,-0.2396,-0.2404,-0.2421,-0.2339,0,0,0,0,0,-0.2642,-0.2653,-0.2658,-0.2702,-0.2703,-0.27,-0.2717,-0.2704,-0.2686,-0.267,-0.2617,-0.2554,-0.2498,-0.2456,-0.2412,-0.2376,-0.2349,-0.2348,-0.2356,-0.2362,-0.2368,-0.2343,-0.2348,-0.229,-0.229,-0.229,0,0,-0.2674,-0.2683,-0.2689,-0.271,-0.2714,-0.2725,-0.2699,-0.2731,-0.274,-0.2654,-0.2644,-0.2589,-0.2503,-0.2463,-0.2438,-0.2408,-0.2368,-0.2366,-0.2372,-0.2374,-0.2346,-0.2352,-0.2357,-0.2292,-0.2292,-0.2292,0,0,-0.2744,-0.2742,-0.2756,-0.2763,-0.2784,-0.2775,-0.2786,-0.2787,-0.2777,-0.2782,-0.2708,-0.2653,-0.2593,-0.2511,-0.2463,-0.2491,-0.2424,-0.2471,-0.2497,-0.2473,-0.2477,-0.248,-0.2464,-0.2466,-0.2455,-0.2456,-0.2456,0,-0.2767,-0.2795,-0.2778,-0.2795,-0.2807,-0.2794,-0.2808,-0.2811,-0.2808,-0.2802,-0.2791,-0.2682,-0.2612,-0.2519,-0.2528,-0.2501,-0.2492,-0.2463,-0.2482,-0.2485,-0.2487,-0.2469,-0.2469,-0.2459,-0.2459,-0.2459,-0.2458,0,-0.2824,-0.2851,-0.2873,-0.2861,-0.287,-0.2898,-0.2886,-0.2894,-0.2887,-0.2882,-0.2835,-0.2749,-0.2678,-0.2636,-0.2589,-0.2545,-0.2536,-0.2509,-0.2457,-0.2497,-0.2476,-0.2475,-0.2465,-0.2464,-0.2462,-0.2462,0,0,-0.2827,-0.2888,-0.289,-0.2903,-0.2901,-0.2915,-0.2928,-0.2927,-0.2925,-0.2914,-0.2899,-0.2803,-0.2764,-0.2709,-0.2619,-0.2577,-0.2584,-0.2558,-0.2555,-0.254,-0.255,-0.2429,-0.2416,-0.2568,-0.2568,-0.2568,-0.2533,0,-0.2858,-0.2916,-0.2925,-0.2968,-0.2983,-0.2967,-0.2977,-0.2976,-0.2968,-0.296,-0.2879,-0.2832,-0.2788,-0.2732,-0.2699,-0.2602,-0.2585,-0.2597,-0.2516,-0.2513,-0.2398,-0.2411,-0.2303,-0.2252,-0.2532,-0.2532,-0.2531,0,-0.2887,-0.2917,-0.297,-0.3009,-0.3006,-0.3021,-0.3005,-0.3016,-0.2998,-0.2992,-0.2943,-0.2896,-0.281,-0.2784,-0.2674,-0.2691,-0.2652,-0.2586,-0.2582,-0.2441,-0.239,-0.2256,-0.2239,-0.2243,-0.2529,-0.253,-0.253,0,-0.2892,-0.2949,-0.2996,-0.3006,-0.3034,-0.3042,-0.3041,-0.3024,-0.3018,-0.3002,-0.2981,-0.2914,-0.2841,-0.2799,-0.268,-0.2695,-0.2569,-0.2567,-0.2425,-0.2417,-0.229,-0.2269,-0.2259,-0.2536,-0.2536,-0.2537,-0.2537,0,-0.2922,-0.2954,-0.3007,-0.3026,-0.3043,-0.3055,-0.3056,-0.3052,-0.3031,-0.2995,-0.2993,-0.2912,-0.2847,-0.2761,-0.2704,-0.254,-0.2595,-0.2431,-0.2393,-0.2313,-0.2295,-0.2262,-0.2281,-0.2535,-0.2536,-0.2536,-0.2536,0,-0.2919,-0.2978,-0.3016,-0.3048,-0.3059,-0.3059,-0.3058,-0.3037,-0.3039,-0.2984,-0.2974,-0.2911,-0.2775,-0.2695,-0.2574,-0.2518,-0.236,-0.2343,-0.2251,-0.2201,-0.2063,-0.2089,-0.2045,-0.202,-0.2194,-0.2191,-0.2188,0,-0.2903,-0.2939,-0.3003,-0.3002,-0.3016,-0.3024,-0.3008,-0.3031,-0.3005,-0.294,-0.2899,-0.2782,-0.2632,-0.2428,-0.2296,-0.2164,-0.2213,-0.2032,-0.2029,-0.2033,-0.2037,-0.21,-0.209,-0.1908,-0.1903,-0.1899,-0.1896,0,-0.2786,-0.2842,-0.2848,-0.2893,-0.2897,-0.2905,-0.2899,-0.2915,-0.2903,-0.2802,-0.2657,-0.2534,-0.2356,-0.2118,-0.1975,-0.1906,-0.1998,-0.1944,-0.1974,-0.1826,-0.187,-0.1833,-0.1976,-0.1861,-0.1864,-0.1867,-0.1869,-0.187,-0.2632,-0.2605,-0.2627,-0.2676,-0.2721,-0.2735,-0.2719,-0.2663,-0.2559,-0.2365,-0.2384,-0.2088,-0.2003,-0.1738,-0.1685,-0.158,-0.1692,-0.1582,-0.1621,-0.1693,-0.164,-0.1698,-0.1516,-0.1517,-0.1519,-0.152,-0.1521,0,-0.2306,-0.2325,-0.2376,-0.2399,-0.2423,-0.2536,-0.2578,-0.2524,-0.2333,-0.2064,-0.1843,-0.1591,-0.1421,-0.1391,-0.1288,-0.1271,-0.1337,-0.1327,-0.1423,-0.1434,-0.1489,-0.1444,-0.1206,-0.1206,-0.1206,-0.1206,-0.1206,-0.1206,-0.2116,-0.2018,-0.21,-0.2063,-0.2145,-0.2162,-0.2208,-0.2128,-0.1991,-0.154,-0.1231,-0.1075,-0.1025,-0.1129,-0.1145,-0.1163,-0.1234,-0.1229,-0.132,-0.1386,-0.1416,-0.1444,-0.1409,-0.1166,-0.1166,-0.1243,-0.1243,-0.1243]}],[{"header":{"parameterUnit":"m.s-1","parameterCategory":2,"la1":30.2991,"la2":30.254,"lo1":-89.0895,"lo2":-89.0444,"dy":0.0017,"dx":0.0017,"nx":28,"ny":28,"refTime":"2024-08-06T03:00:00:Z","depth":"2","parameterNumber":2,"parameterNumberName":"U-component_of_CURRENTS"},"data":[0,0,0,0,0,0,0,0,0,0,0,0,0,0,0,0,0,0,0,0,0,0,0,0,0,0,0,0,0,0,0,0,0,0,0,0,0,0,0,0,0,0,0,0,0,0,0,0,0,0,0,0,0,0,0,0,0,0,0.0297,0.0298,0,0.0301,0.0301,0.0301,0.0303,0.0303,0.0303,0.0303,0.0323,0.0324,0.0324,0,0,0,0,0,0,0,0,0,0,0,0,0,0.0282,0.0283,0.0297,0.0298,0.0298,0.0301,0.0301,0.0301,0.0303,0.0303,0.0303,0.0303,0.0323,0.0324,0.0324,0,0,0,0,0,0,0,0,0,0,0,0,0,0.0287,0.0283,0.0297,0.03,0.03,0.0301,0.0301,0.0301,0.0303,0.0303,0.0303,0.0304,0.0323,0.0324,0.0324,0.0327,0,0,0.0327,0.0327,0,0,0,0,0,0,0,0,0.0287,0.0288,0.0299,0.0299,0.03,0.0302,0.0303,0.031,0.0303,0.0302,0.0303,0.0304,0.0318,0.0319,0.0319,0.0328,0.0329,0.0327,0.0327,0.0327,0.0328,0,0,0,0,0,0,0,0.0287,0.0288,0.0298,0.0299,0.03,0.0296,0.0297,0.0304,0.0309,0.0302,0.0302,0.0303,0.0318,0.0318,0.0319,0.0329,0.0327,0.0327,0.0328,0.0328,0.0377,0.0378,0,0,0,0,0,0,0.0288,0.0287,0.0298,0.0299,0.0294,0.0297,0.0298,0.0301,0.0309,0.031,0.0303,0.0303,0.0317,0.0318,0.032,0.0345,0.0327,0.0328,0.0329,0.0376,0.0377,0.0378,0,0,0,0,0,0,0.0287,0.0289,0.0298,0.0293,0.0294,0.0297,0.03,0.0301,0.031,0.031,0.0311,0.0313,0.0317,0.0319,0.034,0.0345,0.0328,0.0329,0.0375,0.0376,0.0378,0.0382,0,0,0,0,0,0,0.0287,0.0288,0.0296,0.0293,0.0294,0.0304,0.03,0.0301,0.031,0.0311,0.0319,0.032,0.0317,0.0339,0.0341,0.0346,0.033,0.0374,0.0376,0.0377,0.0381,0.0383,0.0385,0,0,0,0,0,0.0286,0.0292,0.0296,0.0298,0.0303,0.0304,0.0305,0.0306,0.0311,0.0315,0.0327,0.032,0.0351,0.0341,0.0342,0.0348,0.0373,0.0375,0.0377,0.0379,0.0383,0.0385,0,0,0,0,0,0,0.0291,0.0293,0.0298,0.0305,0.0308,0.0305,0.031,0.0313,0.0325,0.033,0.0332,0.0334,0.0351,0.0355,0.0344,0.0369,0.0361,0.0363,0.0362,0.0365,0.0367,0.0357,0.033,0,0,0,0,0,0.0296,0.0301,0.0303,0.0311,0.0313,0.0315,0.0318,0.0319,0.0327,0.0332,0.0338,0.0349,0.0359,0.0368,0.0374,0.039,0.0399,0.0396,0.0399,0.0401,0.0395,0.044,0.0445,0.0384,0.0384,0.0384,0,0,0.03,0.0302,0.0306,0.0312,0.0315,0.0319,0.0317,0.0323,0.0329,0.0333,0.0348,0.0356,0.0366,0.038,0.0389,0.0386,0.0419,0.0403,0.0404,0.0398,0.0442,0.0448,0.0453,0.0386,0.0385,0.0385,0,0,0.0305,0.0314,0.0319,0.0321,0.0327,0.0327,0.0332,0.0336,0.0341,0.0356,0.0361,0.0377,0.0392,0.0399,0.0405,0.0428,0.0429,0.0431,0.0435,0.0479,0.0484,0.0488,0.0489,0.0494,0.0434,0.0434,0.0434,0,0.0312,0.0317,0.0321,0.0325,0.0329,0.0333,0.0339,0.0343,0.0354,0.0359,0.0363,0.0389,0.0399,0.0416,0.0423,0.0431,0.0445,0.0421,0.0481,0.0486,0.0491,0.0491,0.0496,0.0435,0.0435,0.0435,0.0435,0,0.0316,0.0324,0.0327,0.0334,0.034,0.0345,0.035,0.036,0.0369,0.0369,0.0389,0.0404,0.0421,0.0427,0.0431,0.0465,0.0458,0.0476,0.0471,0.0497,0.0495,0.05,0.0435,0.0435,0.0435,0.0435,0,0,0.0323,0.0329,0.0333,0.0338,0.0346,0.035,0.0362,0.037,0.0377,0.0389,0.0404,0.0421,0.0428,0.0436,0.0446,0.0478,0.0519,0.0492,0.0494,0.0485,0.0589,0.0641,0.0651,0.0555,0.0557,0.0558,0.0567,0,0.0328,0.0335,0.0339,0.0351,0.0354,0.0364,0.0374,0.0382,0.0389,0.0403,0.0417,0.0432,0.0432,0.0445,0.0478,0.0512,0.0536,0.0512,0.057,0.0571,0.061,0.0661,0.0612,0.0623,0.0572,0.0573,0.0574,0,0.0331,0.0334,0.0342,0.0357,0.0361,0.0373,0.039,0.0398,0.0412,0.0419,0.0433,0.0439,0.0472,0.0481,0.0541,0.0529,0.0557,0.0579,0.0581,0.0632,0.0635,0.0594,0.0635,0.0583,0.0582,0.0581,0.0581,0,0.0326,0.034,0.0347,0.035,0.0363,0.0378,0.0393,0.0403,0.0418,0.0429,0.0439,0.0467,0.0498,0.0537,0.0567,0.0568,0.0632,0.0644,0.0704,0.0706,0.0677,0.0675,0.0693,0.0693,0.0693,0.0693,0.0693,0,0.0328,0.034,0.0347,0.0348,0.0366,0.0379,0.0401,0.0411,0.0439,0.046,0.0449,0.0473,0.0523,0.0554,0.0577,0.0655,0.0643,0.0713,0.0729,0.0676,0.0674,0.0651,0.0646,0.0693,0.0693,0.0693,0.0693,0,0.0329,0.0335,0.0342,0.0355,0.0361,0.0378,0.0419,0.044,0.0448,0.048,0.0487,0.0508,0.0554,0.0573,0.0642,0.0685,0.0735,0.0758,0.0671,0.0681,0.077,0.0765,0.0846,0.0849,0.0851,0.0852,0.0854,0,0.0349,0.0331,0.0335,0.0351,0.0364,0.039,0.0415,0.0445,0.0466,0.0499,0.0518,0.056,0.0585,0.0672,0.0759,0.0814,0.0774,0.08,0.0816,0.0786,0.0793,0.0785,0.0778,0.0753,0.0753,0.0754,0.0754,0,0.0395,0.0375,0.0401,0.0382,0.0414,0.0416,0.0451,0.0467,0.0504,0.0517,0.0557,0.0578,0.0682,0.0746,0.0823,0.0838,0.0793,0.0816,0.0814,0.0743,0.0706,0.071,0.0705,0.0757,0.0757,0.0756,0.0756,0.0756,0.0453,0.0479,0.0492,0.047,0.0491,0.047,0.0479,0.0473,0.0497,0.0504,0.0571,0.0577,0.0672,0.0781,0.0804,0.0839,0.091,0.087,0.0865,0.086,0.087,0.0841,0.0915,0.0916,0.0916,0.0917,0.0917,0,0.0539,0.0563,0.0576,0.0594,0.0605,0.0562,0.0539,0.0509,0.0502,0.0493,0.0521,0.0517,0.0616,0.0667,0.0784,0.0873,0.0808,0.0796,0.0702,0.0703,0.0703,0.0699,0.0701,0.07,0.0699,0.0698,0,0,0.0586,0.0665,0.0658,0.0722,0.0706,0.0666,0.0632,0.053,0.0482,0.0375,0.037,0.0504,0.0627,0.0622,0.0697,0.0713,0.0664,0.0667,0.0848,0.0734,0.073,0.0772,0.0772,0,0,0,0,0]},{"header":{"parameterUnit":"m.s-1","parameterCategory":2,"la1":30.2991,"la2":30.254,"lo1":-89.0895,"lo2":-89.0444,"dy":0.0017,"dx":0.0017,"nx":28,"ny":28,"refTime":"2024-08-06T03:00:00:Z","depth":"2","parameterNumber":3,"parameterNumberName":"V-component_of_CURRENTS"},"data":[0,0,0,0,0,0,0,0,0,0,0,0,0,0,0,0,0,0,0,0,0,0,0,0,0,0,0,0,0,0,0,0,0,0,0,0,0,0,0,0,0,0,0,0,0,0,0,0,0,0,0,0,0,0,0,0,0,0,0.0644,0.0644,0,0.0651,0.0652,0.0652,0.0621,0.0619,0.0618,0.0617,0.0573,0.0573,0.0573,0,0,0,0,0,0,0,0,0,0,0,0,0,0.0623,0.0624,0.0644,0.0644,0.0643,0.0651,0.0652,0.0652,0.0621,0.0619,0.0618,0.0616,0.0573,0.0573,0.0573,0,0,0,0,0,0,0,0,0,0,0,0,0,0.0635,0.0624,0.0644,0.0626,0.0624,0.0651,0.0652,0.0652,0.0621,0.0619,0.0617,0.0616,0.0573,0.0573,0.0573,0.0612,0,0,0.0573,0.0573,0,0,0,0,0,0,0,0,0.0635,0.0637,0.0629,0.0627,0.0625,0.063,0.0628,0.0635,0.0622,0.0627,0.0617,0.0615,0.0586,0.0585,0.0597,0.061,0.0608,0.0573,0.0573,0.0573,0.0573,0,0,0,0,0,0,0,0.0634,0.0636,0.0651,0.0628,0.0626,0.0624,0.0624,0.063,0.0619,0.0626,0.0623,0.0618,0.0585,0.0597,0.0595,0.0607,0.0573,0.0573,0.0573,0.0573,0.0584,0.0585,0,0,0,0,0,0,0.0626,0.0636,0.065,0.0651,0.0621,0.0626,0.0626,0.0633,0.062,0.0615,0.062,0.0616,0.0598,0.0595,0.0594,0.0529,0.0573,0.0573,0.0573,0.0584,0.0584,0.0585,0,0,0,0,0,0,0.0626,0.0628,0.065,0.0639,0.0641,0.0627,0.0637,0.0634,0.0614,0.0615,0.061,0.0597,0.0596,0.0593,0.0587,0.0531,0.0573,0.0573,0.0584,0.0584,0.0584,0.0471,0,0,0,0,0,0,0.0626,0.0629,0.0624,0.0639,0.0641,0.0655,0.0638,0.0636,0.0614,0.0609,0.0595,0.059,0.0595,0.0587,0.0587,0.0532,0.0573,0.0583,0.0584,0.0584,0.0474,0.0467,0.0462,0,0,0,0,0,0.0625,0.0639,0.0624,0.0625,0.0638,0.0655,0.0657,0.0643,0.0614,0.0615,0.0604,0.0589,0.0589,0.0588,0.0587,0.0531,0.0583,0.0584,0.0584,0.0477,0.0469,0.0462,0,0,0,0,0,0,0.0634,0.0637,0.0621,0.0635,0.0633,0.0647,0.0642,0.0629,0.0623,0.06,0.0599,0.0596,0.0565,0.0586,0.0584,0.0544,0.0581,0.0582,0.05,0.0492,0.0486,0.0492,0.0573,0,0,0,0,0,0.0632,0.0636,0.0638,0.0645,0.0638,0.0631,0.0629,0.0615,0.0614,0.0607,0.0596,0.0588,0.0577,0.0563,0.0569,0.0553,0.0571,0.0521,0.0514,0.0508,0.0518,0.0539,0.0534,0.0587,0.0587,0.0587,0,0,0.0637,0.0637,0.0639,0.0645,0.0637,0.064,0.0625,0.0612,0.0612,0.0604,0.059,0.0563,0.0572,0.0546,0.0533,0.0547,0.0492,0.0509,0.0502,0.0517,0.0539,0.0533,0.0528,0.0587,0.0587,0.0587,0,0,0.0653,0.0644,0.0648,0.0645,0.0625,0.0627,0.0615,0.0606,0.0594,0.0589,0.0565,0.0505,0.0524,0.0487,0.048,0.045,0.0461,0.0452,0.041,0.0428,0.0423,0.042,0.0378,0.0371,0.0443,0.0443,0.0443,0,0.0647,0.0662,0.0653,0.0652,0.0647,0.0617,0.0619,0.0617,0.0605,0.0595,0.0576,0.0519,0.0493,0.0437,0.0415,0.0424,0.0442,0.0424,0.0416,0.0413,0.0411,0.037,0.0365,0.0437,0.0438,0.0439,0.0439,0,0.0674,0.0669,0.067,0.066,0.0658,0.0653,0.0642,0.0626,0.0596,0.0587,0.0522,0.0468,0.0433,0.0391,0.0391,0.034,0.0355,0.0402,0.0424,0.0398,0.0357,0.0353,0.043,0.0432,0.0433,0.0435,0,0,0.07,0.0689,0.0683,0.0677,0.0656,0.0663,0.0652,0.0645,0.0623,0.0572,0.0538,0.0446,0.0386,0.0375,0.0318,0.03,0.0245,0.0342,0.0345,0.0278,0.0258,0.0212,0.0203,0.0309,0.0309,0.0309,0.0212,0,0.0714,0.0718,0.0709,0.0709,0.0713,0.0683,0.0682,0.0662,0.0632,0.0597,0.0502,0.0437,0.0394,0.032,0.0303,0.0259,0.0242,0.0265,0.0315,0.0315,0.026,0.0201,0.0334,0.0257,0.0208,0.0208,0.0207,0,0.0742,0.0743,0.074,0.0733,0.0728,0.0712,0.0686,0.0672,0.0622,0.0591,0.0503,0.0449,0.0329,0.0331,0.0243,0.0271,0.0271,0.0246,0.0244,0.0249,0.0264,0.0291,0.0252,0.0201,0.0202,0.0202,0.0203,0,0.0777,0.0768,0.0764,0.0759,0.0742,0.072,0.0694,0.0652,0.0628,0.0547,0.0499,0.041,0.0296,0.0307,0.0185,0.0251,0.0113,0.0209,0.0164,0.0159,0.0305,0.0312,0.0217,0.0217,0.0218,0.0218,0.0218,0,0.0815,0.0807,0.0767,0.0766,0.0761,0.0718,0.0677,0.0656,0.0578,0.0523,0.046,0.0392,0.0299,0.0196,0.0185,0.0091,0.0106,0.0138,0.0137,0.0262,0.0266,0.0272,0.028,0.0214,0.0215,0.0216,0.0216,0,0.0833,0.0823,0.0814,0.0779,0.0775,0.0746,0.0674,0.0643,0.055,0.0467,0.0423,0.0342,0.0203,0.0073,0.0012,0.0032,-0.0016,-0.0034,0.0059,0.0072,0.0039,0.0042,-0.0023,-0.0025,-0.0027,-0.0029,-0.003,0,0.0837,0.0797,0.0809,0.081,0.0781,0.0731,0.0711,0.0643,0.0582,0.0444,0.0407,0.0242,0.0154,-0.0024,-0.0051,-0.0135,-0.0134,-0.0033,0.014,0.0011,0.0017,0.0024,0.0029,0.0266,0.0268,0.0269,0.0269,0,0.0679,0.0658,0.0671,0.0708,0.0699,0.0757,0.0686,0.0639,0.0518,0.0415,0.0255,0.0176,0.0054,0.0044,-0.0074,-0.0068,-0.0007,-0.0011,-0.0162,0.0295,0.0274,0.0283,0.0282,0.0278,0.0277,0.0277,0.0276,0.0276,0.047,0.0527,0.0468,0.0548,0.0607,0.0677,0.0669,0.0566,0.0439,0.027,0.0203,0.0163,0.0178,0.0134,0.0018,-0.0034,0.0023,0.0128,0.013,0.013,0.017,0.0146,0.0129,0.0128,0.0126,0.0125,0.0124,0,0.0251,0.0283,0.0278,0.0431,0.0536,0.0551,0.0587,0.0529,0.0356,0.0297,0.014,0.022,0.0269,0.0248,0.0237,0.0183,0.0208,0.0151,0.0268,0.0265,0.026,0.0309,0.0303,0.0302,0.03,0.0299,0,0,0.0101,0.0042,0.0148,0.0225,0.0368,0.0487,0.0507,0.0344,0.03,0.0226,0.0306,0.0346,0.0413,0.0419,0.0341,0.033,0.0269,0.0297,0.0191,0.0336,0.0329,0.0319,0.0398,0,0,0,0,0]}],[{"header":{"parameterUnit":"m.s-1","parameterCategory":2,"la1":30.2991,"la2":30.254,"lo1":-89.0895,"lo2":-89.0444,"dy":0.0017,"dx":0.0017,"nx":28,"ny":28,"refTime":"2024-08-06T03:00:00:Z","depth":"4","parameterNumber":2,"parameterNumberName":"U-component_of_CURRENTS"},"data":[0,0,0,0,0,0,0,0,0,0,0,0,0,0,0,0,0,0,0,0,0,0,0,0,0,0,0,0,0,0,0,0,0,0,0,0,0,0,0,0,0,0,0,0,0,0,0,0,0,0,0,0,0,0,0,0,0,0,-0.0274,-0.0274,0,-0.0263,-0.0263,-0.0263,-0.0268,-0.0268,-0.0268,-0.0269,-0.0294,-0.0294,-0.0295,0,0,0,0,0,0,0,0,0,0,0,0,0,-0.0283,-0.0283,-0.0274,-0.0274,-0.0274,-0.0263,-0.0263,-0.0263,-0.0268,-0.0268,-0.0269,-0.0269,-0.0294,-0.0294,-0.0295,0,0,0,0,0,0,0,0,0,0,0,0,0,-0.0276,-0.0283,-0.0274,-0.0275,-0.0275,-0.0263,-0.0263,-0.0262,-0.0268,-0.0268,-0.0269,-0.0269,-0.0293,-0.0294,-0.0295,-0.0289,0,0,-0.0296,-0.0297,0,0,0,0,0,0,0,0,-0.0277,-0.0276,-0.0275,-0.0275,-0.0275,-0.0267,-0.0275,-0.0273,-0.0268,-0.027,-0.0269,-0.0269,-0.0288,-0.0289,-0.0285,-0.029,-0.0291,-0.0296,-0.0297,-0.0297,-0.0297,0,0,0,0,0,0,0,-0.0277,-0.0276,-0.0269,-0.0275,-0.0275,-0.0271,-0.027,-0.0275,-0.0277,-0.027,-0.0271,-0.0269,-0.0288,-0.0285,-0.0286,-0.0292,-0.0296,-0.0297,-0.0297,-0.0298,-0.0329,-0.033,0,0,0,0,0,0,-0.0279,-0.0277,-0.027,-0.0269,-0.0277,-0.027,-0.027,-0.0269,-0.0276,-0.0278,-0.0269,-0.027,-0.0283,-0.0285,-0.0287,-0.0286,-0.0297,-0.0298,-0.0298,-0.0329,-0.0329,-0.033,0,0,0,0,0,0,-0.028,-0.0279,-0.027,-0.0273,-0.0272,-0.027,-0.0269,-0.0269,-0.0267,-0.0275,-0.0277,-0.0268,-0.0284,-0.0286,-0.0289,-0.0287,-0.0298,-0.0298,-0.0328,-0.0329,-0.033,-0.0281,0,0,0,0,0,0,-0.028,-0.0279,-0.0279,-0.0273,-0.0271,-0.0259,-0.0268,-0.0268,-0.0265,-0.0266,-0.0275,-0.0277,-0.0284,-0.0288,-0.0289,-0.0288,-0.0299,-0.0328,-0.0328,-0.0329,-0.0282,-0.028,-0.0278,0,0,0,0,0,-0.028,-0.0278,-0.0279,-0.0278,-0.0271,-0.0259,-0.0257,-0.0258,-0.0265,-0.0259,-0.0267,-0.0277,-0.0296,-0.0288,-0.029,-0.0288,-0.0327,-0.0328,-0.0329,-0.0282,-0.028,-0.0278,0,0,0,0,0,0,-0.0283,-0.0278,-0.0279,-0.0276,-0.0267,-0.026,-0.0255,-0.0257,-0.0257,-0.026,-0.0272,-0.0275,-0.0283,-0.0294,-0.0286,-0.0305,-0.0318,-0.0319,-0.0282,-0.028,-0.0278,-0.0267,-0.0299,0,0,0,0,0,-0.0283,-0.0281,-0.0273,-0.027,-0.0264,-0.026,-0.0256,-0.0254,-0.0253,-0.0254,-0.0258,-0.0272,-0.0289,-0.029,-0.0305,-0.0302,-0.0322,-0.0309,-0.0307,-0.0305,-0.03,-0.0328,-0.0328,-0.0334,-0.0334,-0.0334,0,0,-0.0283,-0.0281,-0.028,-0.027,-0.0264,-0.0249,-0.0258,-0.0248,-0.0239,-0.0257,-0.0247,-0.0265,-0.029,-0.0292,-0.0298,-0.0298,-0.0316,-0.0307,-0.0304,-0.0301,-0.0329,-0.0329,-0.0328,-0.0334,-0.0334,-0.0334,0,0,-0.0274,-0.0279,-0.0268,-0.0259,-0.0246,-0.0243,-0.024,-0.0229,-0.0227,-0.0216,-0.0239,-0.0252,-0.0261,-0.0277,-0.0289,-0.0287,-0.0311,-0.03,-0.0269,-0.0296,-0.0295,-0.0295,-0.0319,-0.0321,-0.0291,-0.0291,-0.0291,0,-0.027,-0.0257,-0.0262,-0.0244,-0.0233,-0.024,-0.0218,-0.0218,-0.0209,-0.0204,-0.0209,-0.0242,-0.0254,-0.0275,-0.0268,-0.0281,-0.0299,-0.027,-0.0291,-0.0291,-0.0292,-0.0317,-0.032,-0.0288,-0.0289,-0.0289,-0.0289,0,-0.0247,-0.0236,-0.0228,-0.0209,-0.02,-0.0184,-0.018,-0.0172,-0.0172,-0.0172,-0.0187,-0.021,-0.0223,-0.024,-0.0244,-0.0261,-0.0274,-0.0289,-0.029,-0.0288,-0.0315,-0.0319,-0.0285,-0.0286,-0.0287,-0.0287,0,0,-0.0232,-0.0214,-0.0207,-0.0189,-0.0178,-0.0163,-0.0152,-0.0138,-0.0128,-0.0141,-0.0138,-0.0166,-0.0178,-0.0194,-0.0219,-0.024,-0.025,-0.0252,-0.0255,-0.0264,-0.0306,-0.0219,-0.0216,-0.0264,-0.0265,-0.0265,-0.0323,0,-0.0204,-0.0167,-0.0166,-0.0129,-0.0108,-0.0109,-0.0093,-0.0087,-0.0089,-0.009,-0.0134,-0.0143,-0.0163,-0.0166,-0.019,-0.024,-0.0258,-0.0232,-0.0318,-0.032,-0.0233,-0.0216,-0.0266,-0.0326,-0.0327,-0.0328,-0.0328,0,-0.0171,-0.0152,-0.0113,-0.0079,-0.0068,-0.0049,-0.0024,-0.0009,-0.0023,-0.0024,-0.0051,-0.0087,-0.0123,-0.0142,-0.022,-0.0201,-0.0238,-0.0283,-0.0286,-0.0223,-0.024,-0.0332,-0.0336,-0.0335,-0.0335,-0.0334,-0.0334,0,-0.0149,-0.0108,-0.0078,-0.0067,-0.0038,-0.0015,0.0008,0.0014,0.0027,0.0014,0.0014,-0.0044,-0.0061,-0.0136,-0.0196,-0.0209,-0.0284,-0.032,-0.0288,-0.0283,-0.0367,-0.0367,-0.037,-0.037,-0.037,-0.037,-0.0369,0,-0.0117,-0.0087,-0.0062,-0.0046,-0.001,0.0019,0.0056,0.0066,0.008,0.0082,0.0053,0.0034,-0.0055,-0.0107,-0.0186,-0.0227,-0.0271,-0.0272,-0.0284,-0.0347,-0.0344,-0.037,-0.0369,-0.0372,-0.0371,-0.0371,-0.037,0,-0.0095,-0.0081,-0.0051,-0.0014,-0.0005,0.0027,0.0078,0.0101,0.013,0.0127,0.0124,0.0099,0.0056,-0.003,-0.0137,-0.0181,-0.0259,-0.0263,-0.0306,-0.0323,-0.0254,-0.025,-0.0252,-0.0249,-0.0247,-0.0245,-0.0243,0,-0.0077,-0.0063,-0.0044,-0.0039,-0.0022,0.0028,0.0049,0.0103,0.0125,0.0153,0.0141,0.0136,0.0105,0.0013,-0.0058,-0.0169,-0.0182,-0.0227,-0.0252,-0.0225,-0.0238,-0.0239,-0.0238,-0.024,-0.0239,-0.0239,-0.0238,0,-0.0056,-0.0061,-0.0044,-0.004,-0.002,0.0001,0.0048,0.0068,0.0121,0.015,0.0152,0.0125,0.0107,0.0037,-0.0001,-0.0102,-0.0207,-0.0203,-0.021,-0.0235,-0.0211,-0.0226,-0.0228,-0.023,-0.0231,-0.0232,-0.0232,0,-0.0047,-0.0045,-0.0044,-0.0036,-0.0027,-0.0032,-0.0003,0.0037,0.0073,0.012,0.0118,0.0104,0.011,0.0075,0.0008,-0.0031,-0.0065,-0.0126,-0.0138,-0.0147,-0.0081,-0.0033,0.0004,0,0,0,0,0,-0.0022,-0.0036,-0.0041,-0.0043,-0.0037,-0.004,-0.0012,0.0022,0.0076,0.0073,0.0106,0.0085,0.0058,0.0053,0.0026,0.0035,-0.008,0.0001,-0.016,-0.0185,-0.0194,-0.0124,0,0,0,0,0,0,-0.0029,-0.0021,-0.0043,-0.0053,-0.0058,-0.0057,-0.005,-0.0024,-0.0006,0.0045,0.0034,0.0073,0.0048,0.0072,0.0023,0.002,-0.009,0.0008,0.0007,-0.018,-0.0188,-0.0196,-0.0127,0,0,0,0,0]},{"header":{"parameterUnit":"m.s-1","parameterCategory":2,"la1":30.2991,"la2":30.254,"lo1":-89.0895,"lo2":-89.0444,"dy":0.0017,"dx":0.0017,"nx":28,"ny":28,"refTime":"2024-08-06T03:00:00:Z","depth":"4","parameterNumber":3,"parameterNumberName":"V-component_of_CURRENTS"},"data":[0,0,0,0,0,0,0,0,0,0,0,0,0,0,0,0,0,0,0,0,0,0,0,0,0,0,0,0,0,0,0,0,0,0,0,0,0,0,0,0,0,0,0,0,0,0,0,0,0,0,0,0,0,0,0,0,0,0,0.0443,0.0443,0,0.0441,0.0441,0.0441,0.0453,0.0454,0.0454,0.0455,0.0419,0.0417,0.0416,0,0,0,0,0,0,0,0,0,0,0,0,0,0.0411,0.0412,0.0443,0.0443,0.0443,0.0441,0.0441,0.0441,0.0453,0.0454,0.0454,0.0455,0.0419,0.0417,0.0416,0,0,0,0,0,0,0,0,0,0,0,0,0,0.0417,0.0412,0.0443,0.045,0.0451,0.0441,0.0441,0.0441,0.0453,0.0454,0.0454,0.0455,0.042,0.0418,0.0415,0.0386,0,0,0.0409,0.0408,0,0,0,0,0,0,0,0,0.0417,0.0418,0.0449,0.045,0.0451,0.045,0.0417,0.0421,0.0453,0.045,0.0455,0.0456,0.0426,0.0424,0.042,0.0385,0.0383,0.0409,0.0407,0.0406,0.0406,0,0,0,0,0,0,0,0.0416,0.0418,0.044,0.0449,0.045,0.0438,0.044,0.0417,0.0432,0.0451,0.0452,0.0454,0.0427,0.0422,0.0419,0.0383,0.0409,0.0407,0.0405,0.0405,0.0352,0.0352,0,0,0,0,0,0,0.0422,0.0418,0.044,0.044,0.0437,0.0439,0.0441,0.0448,0.0433,0.0432,0.0454,0.0455,0.0425,0.0421,0.0417,0.0453,0.0406,0.0404,0.0403,0.0352,0.0352,0.0352,0,0,0,0,0,0,0.0421,0.0424,0.044,0.043,0.0432,0.0439,0.0446,0.0447,0.0455,0.0436,0.0435,0.0462,0.0425,0.042,0.0399,0.0449,0.0403,0.0401,0.0352,0.0352,0.0352,0.0479,0,0,0,0,0,0,0.0421,0.0424,0.0432,0.0431,0.0433,0.044,0.0446,0.0447,0.0455,0.0457,0.0442,0.0439,0.0426,0.0402,0.0397,0.0446,0.04,0.0352,0.0352,0.0352,0.0475,0.0484,0.0491,0,0,0,0,0,0.0419,0.0431,0.0433,0.0435,0.0443,0.044,0.044,0.0446,0.0455,0.0456,0.0443,0.044,0.0398,0.04,0.0394,0.0443,0.0352,0.0352,0.0352,0.0472,0.0482,0.0491,0,0,0,0,0,0,0.0426,0.0434,0.0435,0.045,0.0447,0.0444,0.045,0.0451,0.0442,0.0446,0.043,0.0425,0.0425,0.0399,0.0402,0.0421,0.0378,0.0377,0.0471,0.0481,0.0488,0.0476,0.0398,0,0,0,0,0,0.0429,0.044,0.0439,0.0451,0.0453,0.0452,0.0453,0.0454,0.0446,0.0445,0.0435,0.0422,0.0416,0.042,0.0393,0.0403,0.0382,0.0428,0.0436,0.0443,0.0424,0.0441,0.045,0.0351,0.0351,0.0351,0,0,0.0437,0.0441,0.0449,0.0452,0.0454,0.0447,0.0455,0.0459,0.0463,0.044,0.0442,0.0437,0.0415,0.0429,0.0429,0.0421,0.0463,0.0443,0.045,0.0426,0.0442,0.0452,0.0461,0.0351,0.0351,0.0351,0,0,0.0444,0.0459,0.0464,0.0457,0.0457,0.0454,0.0458,0.0457,0.0471,0.0467,0.0461,0.0476,0.0458,0.0469,0.047,0.0494,0.0491,0.05,0.0554,0.0573,0.0582,0.0589,0.0602,0.061,0.0523,0.0523,0.0524,0,0.0453,0.0454,0.0464,0.0456,0.0458,0.0458,0.0458,0.0462,0.0455,0.0472,0.0476,0.0479,0.0477,0.0507,0.0534,0.0518,0.0522,0.0536,0.0588,0.0595,0.06,0.0611,0.0618,0.053,0.0529,0.0528,0.0528,0,0.0451,0.0449,0.0453,0.0444,0.045,0.0447,0.0456,0.0467,0.0489,0.0496,0.0529,0.0533,0.0538,0.0566,0.0567,0.0619,0.0608,0.059,0.0578,0.0619,0.0627,0.0632,0.0538,0.0536,0.0534,0.0533,0,0,0.0476,0.0455,0.0456,0.0458,0.0445,0.0458,0.0468,0.0487,0.051,0.0527,0.0557,0.0596,0.0611,0.0609,0.0631,0.0672,0.0748,0.0669,0.0667,0.0704,0.0797,0.0737,0.0736,0.0759,0.076,0.0761,0.0797,0,0.047,0.0461,0.0453,0.0454,0.0456,0.0463,0.047,0.0491,0.0523,0.0543,0.0582,0.0603,0.0625,0.0657,0.07,0.0701,0.0762,0.0739,0.0728,0.0727,0.0688,0.0739,0.0764,0.0801,0.0802,0.0803,0.0803,0,0.0465,0.0464,0.0467,0.0471,0.0476,0.0486,0.0532,0.054,0.0564,0.0584,0.062,0.0624,0.0667,0.0688,0.0739,0.0727,0.0778,0.08,0.0802,0.0694,0.0675,0.0739,0.0812,0.0811,0.081,0.081,0.0809,0,0.0487,0.0478,0.0491,0.0488,0.0487,0.0523,0.0544,0.0573,0.06,0.0625,0.0633,0.0656,0.0683,0.0718,0.0759,0.0759,0.0813,0.0806,0.0807,0.0803,0.0792,0.0783,0.0878,0.0878,0.0878,0.0878,0.0878,0,0.0473,0.0489,0.0516,0.0521,0.0569,0.0567,0.0625,0.0641,0.0659,0.0688,0.0671,0.069,0.0702,0.0725,0.0757,0.0779,0.0811,0.0811,0.0808,0.0845,0.0842,0.0797,0.0788,0.0879,0.0879,0.0879,0.0878,0,0.049,0.0482,0.0526,0.056,0.0579,0.064,0.0691,0.0726,0.0719,0.0755,0.0759,0.0734,0.0737,0.0744,0.0794,0.0782,0.0803,0.083,0.0866,0.0864,0.0782,0.0778,0.0797,0.0795,0.0794,0.0793,0.0791,0,0.0489,0.0508,0.0589,0.0638,0.067,0.074,0.0775,0.078,0.081,0.0789,0.0802,0.0795,0.0782,0.0767,0.0777,0.0788,0.0814,0.0812,0.0799,0.0779,0.0774,0.0773,0.0771,0.0789,0.0789,0.0788,0.0788,0,0.0517,0.0567,0.0607,0.071,0.0782,0.0844,0.0899,0.0903,0.0892,0.0875,0.0833,0.0794,0.0788,0.0755,0.077,0.0791,0.0775,0.0796,0.0799,0.0787,0.0769,0.0766,0.0766,0.0782,0.0783,0.0784,0.0784,0,0.0578,0.0625,0.0692,0.0781,0.0873,0.0938,0.095,0.0953,0.095,0.0891,0.0889,0.0836,0.0815,0.0763,0.0776,0.0762,0.0759,0.0746,0.0752,0.0758,0.072,0.069,0.068,0,0,0,0,0,0.0641,0.0676,0.0754,0.0849,0.0943,0.0985,0.102,0.1008,0.0969,0.0941,0.0905,0.0885,0.0822,0.0788,0.0767,0.0775,0.0783,0.0747,0.0778,0.0753,0.0759,0.0714,0,0,0,0,0,0,0.0675,0.075,0.0755,0.0882,0.0952,0.1042,0.1062,0.1035,0.0997,0.0945,0.0913,0.0861,0.0815,0.0842,0.0761,0.0754,0.0763,0.0716,0.0714,0.0749,0.0755,0.076,0.0716,0,0,0,0,0]}]]